Location: Boiro
(42.6475°N, 8.8834°W)
Time: 17:11:42
(UTC+01:00)

Transit 2A Rocket - Pass Details

Date: 02 December 2021
Orbit: 584 x 918 km, 66.7° (Epoch: 19 January)

Event Time Altitude Azimuth Distance (km) Brightness Sun altitude
Rises 12:11:19 0° 281° (W) 3,436 8.1 23.1°
Reaches altitude 10° 12:15:50 10° 314° (NW) 2,563 7.3 23.4°
Maximum altitude 12:17:48 12° 333° (NNW) 2,472 7.2 23.5°
Drops below altitude 10° 12:19:47 10° 352° (N) 2,601 7.3 23.6°
Sets 12:24:30 0° 24° (NNE) 3,565 8.0 23.8°
